owner,sensor,date,latitude,longitude,vertical_datum,direction_of_sea_water_velocity,sea_water_speed,upward_sea_water_velocity,qcFlag 
TABS,ioos:station:wmo:42051:1,2014-12-01T00:00:00Z,29.6350,-93.6417,2.0,264.9547199,6.936872494,-99999.0,'11133222,11111222,99999999' 
TABS,ioos:station:wmo:42051:1,2014-12-01T00:30:00Z,29.6350,-93.6417,2.0,289.8842485,8.879352454,-99999.0,'11133222,11111222,99999999' 
TABS,ioos:station:wmo:42051:1,2014-12-01T01:00:00Z,29.6350,-93.6417,2.0,285.8480888,9.667450543,-99999.0,'11133222,11111222,99999999' 
TABS,ioos:station:wmo:42051:1,2014-12-01T01:30:00Z,29.6350,-93.6417,2.0,274.1915382,11.22000446,-99999.0,'11111222,11111222,99999999' 
TABS,ioos:station:wmo:42051:1,2014-12-01T02:00:00Z,29.6350,-93.6417,2.0,260.0112801,11.81914125,-99999.0,'11111222,11111222,99999999' 
TABS,ioos:station:wmo:42051:1,2014-12-01T02:30:00Z,29.6350,-93.6417,2.0,258.7575244,11.59243288,-99999.0,'11111222,11111222,99999999' 
TABS,ioos:station:wmo:42051:1,2014-12-01T03:00:00Z,29.6350,-93.6417,2.0,256.7568862,14.88583891,-99999.0,'11111222,11111222,99999999' 
TABS,ioos:station:wmo:42051:1,2014-12-01T03:30:00Z,29.6350,-93.6417,2.0,250.7985068,14.8988221,-99999.0,'11111222,11111222,99999999' 
TABS,ioos:station:wmo:42051:1,2014-12-01T04:00:00Z,29.6350,-93.6417,2.0,235.3550726,16.48243004,-99999.0,'11111222,11111222,99999999' 
TABS,ioos:station:wmo:42051:1,2014-12-01T04:30:00Z,29.6350,-93.6417,2.0,229.1488495,15.44125643,-99999.0,'11111222,11111222,99999999' 
TABS,ioos:station:wmo:42051:1,2014-12-01T05:00:00Z,29.6350,-93.6417,2.0,238.9039895,14.15381574,-99999.0,'11111222,11111222,99999999' 
TABS,ioos:station:wmo:42051:1,2014-12-01T05:30:00Z,29.6350,-93.6417,2.0,226.5981068,16.9842427,-99999.0,'11111222,11111222,99999999' 
TABS,ioos:station:wmo:42051:1,2014-12-01T06:00:00Z,29.6350,-93.6417,2.0,229.7976587,16.65415564,-99999.0,'11111222,11111222,99999999' 
TABS,ioos:station:wmo:42051:1,2014-12-01T06:30:00Z,29.6350,-93.6417,2.0,211.1613765,19.36402076,-99999.0,'11111222,11111222,99999999' 
TABS,ioos:station:wmo:42051:1,2014-12-01T07:00:00Z,29.6350,-93.6417,2.0,229.5250657,9.320439904,-99999.0,'11133222,11111222,99999999' 
TABS,ioos:station:wmo:42051:1,2014-12-01T07:30:00Z,29.6350,-93.6417,2.0,248.3909182,11.59488249,-99999.0,'11111222,11111222,99999999' 
TABS,ioos:station:wmo:42051:1,2014-12-01T08:00:00Z,29.6350,-93.6417,2.0,256.3766853,12.43997588,-99999.0,'11111222,11111222,99999999' 
TABS,ioos:station:wmo:42051:1,2014-12-01T08:30:00Z,29.6350,-93.6417,2.0,292.2141862,17.80121625,-99999.0,'11111222,11111222,99999999' 
TABS,ioos:station:wmo:42051:1,2014-12-01T09:00:00Z,29.6350,-93.6417,2.0,275.3301477,15.7179547,-99999.0,'11111222,11111222,99999999' 
TABS,ioos:station:wmo:42051:1,2014-12-01T09:30:00Z,29.6350,-93.6417,2.0,269.0755359,17.98233856,-99999.0,'11111222,11111222,99999999' 
TABS,ioos:station:wmo:42051:1,2014-12-01T10:00:00Z,29.6350,-93.6417,2.0,272.0251813,17.83113289,-99999.0,'11111222,11111222,99999999' 
TABS,ioos:station:wmo:42051:1,2014-12-01T10:30:00Z,29.6350,-93.6417,2.0,273.1387401,19.90985937,-99999.0,'11111222,11111222,99999999' 
TABS,ioos:station:wmo:42051:1,2014-12-01T11:00:00Z,29.6350,-93.6417,2.0,254.3099825,17.23205443,-99999.0,'11111222,11111222,99999999' 
TABS,ioos:station:wmo:42051:1,2014-12-01T11:30:00Z,29.6350,-93.6417,2.0,258.0039178,17.36928899,-99999.0,'11111222,11111222,99999999' 
TABS,ioos:station:wmo:42051:1,2014-12-01T12:00:00Z,29.6350,-93.6417,2.0,290.7027987,18.7828246,-99999.0,'11111222,11111222,99999999' 
TABS,ioos:station:wmo:42051:1,2014-12-01T12:30:00Z,29.6350,-93.6417,2.0,290.8119338,20.20852543,-99999.0,'11111222,11111222,99999999' 
TABS,ioos:station:wmo:42051:1,2014-12-01T13:00:00Z,29.6350,-93.6417,2.0,270.9093019,18.28230018,-99999.0,'11111222,11111222,99999999' 
TABS,ioos:station:wmo:42051:1,2014-12-01T13:30:00Z,29.6350,-93.6417,2.0,288.4589342,23.0245456,-99999.0,'11111222,11111222,99999999' 
TABS,ioos:station:wmo:42051:1,2014-12-01T14:00:00Z,29.6350,-93.6417,2.0,266.9969755,17.75437411,-99999.0,'11111222,11111222,99999999' 
TABS,ioos:station:wmo:42051:1,2014-12-01T14:30:00Z,29.6350,-93.6417,2.0,265.6947226,15.45359829,-99999.0,'11111222,11111222,99999999' 
TABS,ioos:station:wmo:42051:1,2014-12-01T15:00:00Z,29.6350,-93.6417,2.0,270.7306498,18.83152941,-99999.0,'11111222,11111222,99999999' 
TABS,ioos:station:wmo:42051:1,2014-12-01T15:30:00Z,29.6350,-93.6417,2.0,265.3908143,19.66358055,-99999.0,'11111222,11111222,99999999' 
TABS,ioos:station:wmo:42051:1,2014-12-01T16:00:00Z,29.6350,-93.6417,2.0,243.8657235,16.64128901,-99999.0,'11111222,11111222,99999999' 
TABS,ioos:station:wmo:42051:1,2014-12-01T16:30:00Z,29.6350,-93.6417,2.0,243.9322596,16.47597038,-99999.0,'11111222,11111222,99999999' 
TABS,ioos:station:wmo:42051:1,2014-12-01T17:00:00Z,29.6350,-93.6417,2.0,248.088543,14.55111336,-99999.0,'11111222,11111222,99999999' 
TABS,ioos:station:wmo:42051:1,2014-12-01T17:30:00Z,29.6350,-93.6417,2.0,265.388313,14.67751001,-99999.0,'11111222,11111222,99999999' 
TABS,ioos:station:wmo:42051:1,2014-12-01T18:00:00Z,29.6350,-93.6417,2.0,248.2166416,17.3272329,-99999.0,'11111222,11111222,99999999' 
TABS,ioos:station:wmo:42051:1,2014-12-01T18:30:00Z,29.6350,-93.6417,2.0,265.4083159,17.11492039,-99999.0,'11111222,11111222,99999999' 
TABS,ioos:station:wmo:42051:1,2014-12-01T19:00:00Z,29.6350,-93.6417,2.0,259.0273645,17.96847239,-99999.0,'11111222,11111222,99999999' 
TABS,ioos:station:wmo:42051:1,2014-12-01T19:30:00Z,29.6350,-93.6417,2.0,232.3384612,16.21954685,-99999.0,'11111222,11111222,99999999' 
TABS,ioos:station:wmo:42051:1,2014-12-01T20:00:00Z,29.6350,-93.6417,2.0,243.0536405,16.81560287,-99999.0,'11111222,11111222,99999999' 
TABS,ioos:station:wmo:42051:1,2014-12-01T20:30:00Z,29.6350,-93.6417,2.0,253.1704671,16.47561228,-99999.0,'11111222,11111222,99999999' 
TABS,ioos:station:wmo:42051:1,2014-12-01T21:00:00Z,29.6350,-93.6417,2.0,229.2501775,18.03131997,-99999.0,'11111222,11111222,99999999' 
TABS,ioos:station:wmo:42051:1,2014-12-01T21:30:00Z,29.6350,-93.6417,2.0,226.4463456,18.76552424,-99999.0,'11111222,11111222,99999999' 
TABS,ioos:station:wmo:42051:1,2014-12-01T22:00:00Z,29.6350,-93.6417,2.0,238.6879727,17.51032838,-99999.0,'11111222,11111222,99999999' 
TABS,ioos:station:wmo:42051:1,2014-12-01T22:30:00Z,29.6350,-93.6417,2.0,241.2786797,21.51726051,-99999.0,'11111222,11111222,99999999' 
TABS,ioos:station:wmo:42051:1,2014-12-01T23:00:00Z,29.6350,-93.6417,2.0,243.9187338,21.69957834,-99999.0,'11111222,11111222,99999999' 
TABS,ioos:station:wmo:42051:1,2014-12-01T23:30:00Z,29.6350,-93.6417,2.0,236.5778735,18.95431349,-99999.0,'11111222,11111222,99999999' 
TABS,ioos:station:wmo:42051:1,2014-12-02T00:00:00Z,29.6350,-93.6417,2.0,249.6998067,19.62916707,-99999.0,'11111222,11111222,99999999' 
TABS,ioos:station:wmo:42051:1,2014-12-02T00:30:00Z,29.6350,-93.6417,2.0,236.021462,18.75187724,-99999.0,'11111222,11111222,99999999' 
TABS,ioos:station:wmo:42051:1,2014-12-02T01:00:00Z,29.6350,-93.6417,2.0,237.2320751,18.08834431,-99999.0,'11111222,11111222,99999999' 
TABS,ioos:station:wmo:42051:1,2014-12-02T01:30:00Z,29.6350,-93.6417,2.0,248.6912416,12.3009146,-99999.0,'11111222,11111222,99999999' 
TABS,ioos:station:wmo:42051:1,2014-12-02T02:00:00Z,29.6350,-93.6417,2.0,237.9942707,11.50945698,-99999.0,'11111222,11111222,99999999' 
TABS,ioos:station:wmo:42051:1,2014-12-02T02:30:00Z,29.6350,-93.6417,2.0,272.3818543,5.294572693,-99999.0,'11133222,11111222,99999999' 
TABS,ioos:station:wmo:42051:1,2014-12-02T03:00:00Z,29.6350,-93.6417,2.0,226.4516751,17.30138723,-99999.0,'11111222,11111222,99999999' 
TABS,ioos:station:wmo:42051:1,2014-12-02T03:30:00Z,29.6350,-93.6417,2.0,219.3690147,17.15231763,-99999.0,'11111222,11111222,99999999' 
TABS,ioos:station:wmo:42051:1,2014-12-02T04:00:00Z,29.6350,-93.6417,2.0,237.313125,19.7947392,-99999.0,'11111222,11111222,99999999' 
TABS,ioos:station:wmo:42051:1,2014-12-02T04:30:00Z,29.6350,-93.6417,2.0,223.8499606,20.43950097,-99999.0,'11111222,11111222,99999999' 
TABS,ioos:station:wmo:42051:1,2014-12-02T05:00:00Z,29.6350,-93.6417,2.0,236.6723692,19.7116666,-99999.0,'11111222,11111222,99999999' 
TABS,ioos:station:wmo:42051:1,2014-12-02T05:30:00Z,29.6350,-93.6417,2.0,230.596383,18.05364506,-99999.0,'11111222,11111222,99999999' 
TABS,ioos:station:wmo:42051:1,2014-12-02T06:00:00Z,29.6350,-93.6417,2.0,229.4808997,21.08674702,-99999.0,'11111222,11111222,99999999' 
TABS,ioos:station:wmo:42051:1,2014-12-02T06:30:00Z,29.6350,-93.6417,2.0,233.0038203,21.83605276,-99999.0,'11111222,11111222,99999999' 
TABS,ioos:station:wmo:42051:1,2014-12-02T07:00:00Z,29.6350,-93.6417,2.0,220.2019424,23.67202568,-99999.0,'11111222,11111222,99999999' 
TABS,ioos:station:wmo:42051:1,2014-12-02T07:30:00Z,29.6350,-93.6417,2.0,229.6248432,23.32562968,-99999.0,'11111222,11111222,99999999' 
TABS,ioos:station:wmo:42051:1,2014-12-02T08:00:00Z,29.6350,-93.6417,2.0,230.0289768,27.98897819,-99999.0,'11111222,11111222,99999999' 
TABS,ioos:station:wmo:42051:1,2014-12-02T08:30:00Z,29.6350,-93.6417,2.0,220.2866807,23.92453552,-99999.0,'11111222,11111222,99999999' 
TABS,ioos:station:wmo:42051:1,2014-12-02T09:00:00Z,29.6350,-93.6417,2.0,228.1356191,26.62708771,-99999.0,'11111222,11111222,99999999' 
TABS,ioos:station:wmo:42051:1,2014-12-02T09:30:00Z,29.6350,-93.6417,2.0,226.7214798,28.24045325,-99999.0,'11111222,11111222,99999999' 
TABS,ioos:station:wmo:42051:1,2014-12-02T10:00:00Z,29.6350,-93.6417,2.0,217.84314,23.89544936,-99999.0,'11111222,11111222,99999999' 
TABS,ioos:station:wmo:42051:1,2014-12-02T10:30:00Z,29.6350,-93.6417,2.0,221.051715,24.95645207,-99999.0,'11111222,11111222,99999999' 
TABS,ioos:station:wmo:42051:1,2014-12-02T11:00:00Z,29.6350,-93.6417,2.0,231.5155199,20.37608647,-99999.0,'11111222,11111222,99999999' 
TABS,ioos:station:wmo:42051:1,2014-12-02T11:30:00Z,29.6350,-93.6417,2.0,229.911757,21.30559551,-99999.0,'11111222,11111222,99999999' 
TABS,ioos:station:wmo:42051:1,2014-12-02T12:00:00Z,29.6350,-93.6417,2.0,231.1104797,21.45532335,-99999.0,'11111222,11111222,99999999' 
TABS,ioos:station:wmo:42051:1,2014-12-02T12:30:00Z,29.6350,-93.6417,2.0,242.4089463,22.73550967,-99999.0,'11111222,11111222,99999999' 
TABS,ioos:station:wmo:42051:1,2014-12-02T13:00:00Z,29.6350,-93.6417,2.0,237.9299811,17.9489554,-99999.0,'11111222,11111222,99999999' 
TABS,ioos:station:wmo:42051:1,2014-12-02T13:30:00Z,29.6350,-93.6417,2.0,243.5186012,18.3,-99999.0,'11111222,11111222,99999999' 
TABS,ioos:station:wmo:42051:1,2014-12-02T14:00:00Z,29.6350,-93.6417,2.0,245.1594227,22.13815936,-99999.0,'11111222,11111222,99999999' 
TABS,ioos:station:wmo:42051:1,2014-12-02T14:30:00Z,29.6350,-93.6417,2.0,251.8473024,23.07858315,-99999.0,'11111222,11111222,99999999' 
TABS,ioos:station:wmo:42051:1,2014-12-02T15:00:00Z,29.6350,-93.6417,2.0,240.0412408,26.29306563,-99999.0,'11111222,11111222,99999999' 
TABS,ioos:station:wmo:42051:1,2014-12-02T15:30:00Z,29.6350,-93.6417,2.0,255.3525492,20.2480246,-99999.0,'11111222,11111222,99999999' 
TABS,ioos:station:wmo:42051:1,2014-12-02T16:00:00Z,29.6350,-93.6417,2.0,248.9174287,24.85356514,-99999.0,'11111222,11111222,99999999' 
TABS,ioos:station:wmo:42051:1,2014-12-02T16:30:00Z,29.6350,-93.6417,2.0,241.8844554,24.46706562,-99999.0,'11111222,11111222,99999999' 
TABS,ioos:station:wmo:42051:1,2014-12-02T17:00:00Z,29.6350,-93.6417,2.0,237.5600393,27.83316367,-99999.0,'11111222,11111222,99999999' 
TABS,ioos:station:wmo:42051:1,2014-12-02T17:30:00Z,29.6350,-93.6417,2.0,245.2502705,20.18393916,-99999.0,'11111222,11111222,99999999' 
TABS,ioos:station:wmo:42051:1,2014-12-02T18:00:00Z,29.6350,-93.6417,2.0,236.8841235,24.89342283,-99999.0,'11111222,11111222,99999999' 
TABS,ioos:station:wmo:42051:1,2014-12-02T18:30:00Z,29.6350,-93.6417,2.0,237.3987875,21.01029272,-99999.0,'11111222,11111222,99999999' 
TABS,ioos:station:wmo:42051:1,2014-12-02T19:00:00Z,29.6350,-93.6417,2.0,239.663095,25.2238082,-99999.0,'11111222,11111222,99999999' 
TABS,ioos:station:wmo:42051:1,2014-12-02T19:30:00Z,29.6350,-93.6417,2.0,238.6563098,26.14553308,-99999.0,'11111222,11111222,99999999' 
TABS,ioos:station:wmo:42051:1,2014-12-02T20:00:00Z,29.6350,-93.6417,2.0,230.9539869,23.65305266,-99999.0,'11111222,11111222,99999999' 
TABS,ioos:station:wmo:42051:1,2014-12-02T20:30:00Z,29.6350,-93.6417,2.0,238.0596695,28.78850118,-99999.0,'11111222,11111222,99999999' 
TABS,ioos:station:wmo:42051:1,2014-12-02T21:00:00Z,29.6350,-93.6417,2.0,232.2718892,21.50641067,-99999.0,'11111222,11111222,99999999' 
TABS,ioos:station:wmo:42051:1,2014-12-02T21:30:00Z,29.6350,-93.6417,2.0,238.8057629,26.04570022,-99999.0,'11111222,11111222,99999999' 
TABS,ioos:station:wmo:42051:1,2014-12-02T22:00:00Z,29.6350,-93.6417,2.0,243.9593861,22.4600089,-99999.0,'11111222,11111222,99999999' 
TABS,ioos:station:wmo:42051:1,2014-12-02T22:30:00Z,29.6350,-93.6417,2.0,250.2264352,16.78994937,-99999.0,'11111222,11111222,99999999' 
TABS,ioos:station:wmo:42051:1,2014-12-02T23:00:00Z,29.6350,-93.6417,2.0,251.092567,14.96756827,-99999.0,'11111222,11111222,99999999' 
TABS,ioos:station:wmo:42051:1,2014-12-02T23:30:00Z,29.6350,-93.6417,2.0,251.0998102,18.70865041,-99999.0,'11111222,11111222,99999999' 
TABS,ioos:station:wmo:42051:1,2014-12-03T00:00:00Z,29.6350,-93.6417,2.0,247.5388462,14.68390275,-99999.0,'11111222,11111222,99999999' 
TABS,ioos:station:wmo:42051:1,2014-12-03T00:30:00Z,29.6350,-93.6417,2.0,253.1358836,18.68343651,-99999.0,'11111222,11111222,99999999' 
TABS,ioos:station:wmo:42051:1,2014-12-03T01:00:00Z,29.6350,-93.6417,2.0,247.4034932,14.8607705,-99999.0,'11111222,11111222,99999999' 
TABS,ioos:station:wmo:42051:1,2014-12-03T01:30:00Z,29.6350,-93.6417,2.0,250.6131253,10.09221978,-99999.0,'11111222,11111222,99999999' 
TABS,ioos:station:wmo:42051:1,2014-12-03T02:00:00Z,29.6350,-93.6417,2.0,278.2336466,9.427162882,-99999.0,'11133222,11111222,99999999' 
TABS,ioos:station:wmo:42051:1,2014-12-03T02:30:00Z,29.6350,-93.6417,2.0,239.0287731,13.79706128,-99999.0,'11111222,11111222,99999999' 
TABS,ioos:station:wmo:42051:1,2014-12-03T03:00:00Z,29.6350,-93.6417,2.0,266.433965,13.34583456,-99999.0,'11111222,11111222,99999999' 
TABS,ioos:station:wmo:42051:1,2014-12-03T03:30:00Z,29.6350,-93.6417,2.0,247.9819137,12.29683293,-99999.0,'11111222,11111222,99999999' 
TABS,ioos:station:wmo:42051:1,2014-12-03T04:00:00Z,29.6350,-93.6417,2.0,265.9055243,9.664662436,-99999.0,'11133222,11111222,99999999' 
TABS,ioos:station:wmo:42051:1,2014-12-03T04:30:00Z,29.6350,-93.6417,2.0,244.1493378,13.62318612,-99999.0,'11111222,11111222,99999999' 
TABS,ioos:station:wmo:42051:1,2014-12-03T05:00:00Z,29.6350,-93.6417,2.0,244.6519393,17.89258226,-99999.0,'11111222,11111222,99999999' 
TABS,ioos:station:wmo:42051:1,2014-12-03T05:30:00Z,29.6350,-93.6417,2.0,244.7906425,15.49581879,-99999.0,'11111222,11111222,99999999' 
TABS,ioos:station:wmo:42051:1,2014-12-03T06:00:00Z,29.6350,-93.6417,2.0,240.2593999,15.34061602,-99999.0,'11111222,11111222,99999999' 
TABS,ioos:station:wmo:42051:1,2014-12-03T06:30:00Z,29.6350,-93.6417,2.0,247.5863046,14.08393766,-99999.0,'11111222,11111222,99999999' 
TABS,ioos:station:wmo:42051:1,2014-12-03T07:00:00Z,29.6350,-93.6417,2.0,233.0477606,16.76801718,-99999.0,'11111222,11111222,99999999' 
TABS,ioos:station:wmo:42051:1,2014-12-03T07:30:00Z,29.6350,-93.6417,2.0,238.7806169,23.48010434,-99999.0,'11111222,11111222,99999999' 
TABS,ioos:station:wmo:42051:1,2014-12-03T08:00:00Z,29.6350,-93.6417,2.0,232.6310225,16.77263545,-99999.0,'11111222,11111222,99999999' 
TABS,ioos:station:wmo:42051:1,2014-12-03T08:30:00Z,29.6350,-93.6417,2.0,226.7381198,17.94755972,-99999.0,'11111222,11111222,99999999' 
TABS,ioos:station:wmo:42051:1,2014-12-03T09:00:00Z,29.6350,-93.6417,2.0,244.197621,15.7835674,-99999.0,'11111222,11111222,99999999' 
TABS,ioos:station:wmo:42051:1,2014-12-03T09:30:00Z,29.6350,-93.6417,2.0,232.2896901,13.09540759,-99999.0,'11111222,11111222,99999999' 
TABS,ioos:station:wmo:42051:1,2014-12-03T10:00:00Z,29.6350,-93.6417,2.0,208.7537657,15.92347952,-99999.0,'11111222,11111222,99999999' 
TABS,ioos:station:wmo:42051:1,2014-12-03T10:30:00Z,29.6350,-93.6417,2.0,218.8932672,11.10092339,-99999.0,'11111222,11111222,99999999' 
TABS,ioos:station:wmo:42051:1,2014-12-03T11:00:00Z,29.6350,-93.6417,2.0,224.5304081,9.496762606,-99999.0,'11133222,11111222,99999999' 
TABS,ioos:station:wmo:42051:1,2014-12-03T11:30:00Z,29.6350,-93.6417,2.0,205.2047079,7.913437938,-99999.0,'11133222,11111222,99999999' 
TABS,ioos:station:wmo:42051:1,2014-12-03T12:00:00Z,29.6350,-93.6417,2.0,218.5751112,9.542227203,-99999.0,'11133222,11111222,99999999' 
TABS,ioos:station:wmo:42051:1,2014-12-03T12:30:00Z,29.6350,-93.6417,2.0,232.8398491,6.324080961,-99999.0,'11133222,11111222,99999999' 
TABS,ioos:station:wmo:42051:1,2014-12-03T13:00:00Z,29.6350,-93.6417,2.0,221.7497936,4.490278388,-99999.0,'11133222,11111222,99999999' 
TABS,ioos:station:wmo:42051:1,2014-12-03T13:30:00Z,29.6350,-93.6417,2.0,283.5198034,5.646459067,-99999.0,'11133222,11111222,99999999' 
TABS,ioos:station:wmo:42051:1,2014-12-03T14:00:00Z,29.6350,-93.6417,2.0,246.0454922,6.970351498,-99999.0,'11133222,11111222,99999999' 
TABS,ioos:station:wmo:42051:1,2014-12-03T14:30:00Z,29.6350,-93.6417,2.0,280.7646706,5.354213294,-99999.0,'11133222,11111222,99999999' 
TABS,ioos:station:wmo:42051:1,2014-12-03T15:00:00Z,29.6350,-93.6417,2.0,273.6917983,5.280956353,-99999.0,'11133222,11111222,99999999' 
TABS,ioos:station:wmo:42051:1,2014-12-03T15:30:00Z,29.6350,-93.6417,2.0,244.837805,12.41837348,-99999.0,'11111222,11111222,99999999' 
TABS,ioos:station:wmo:42051:1,2014-12-03T16:00:00Z,29.6350,-93.6417,2.0,256.8971219,15.92457849,-99999.0,'11111222,11111222,99999999' 
TABS,ioos:station:wmo:42051:1,2014-12-03T16:30:00Z,29.6350,-93.6417,2.0,253.3289979,17.25524268,-99999.0,'11111222,11111222,99999999' 
TABS,ioos:station:wmo:42051:1,2014-12-03T17:00:00Z,29.6350,-93.6417,2.0,259.9490035,17.13292153,-99999.0,'11111222,11111222,99999999' 
TABS,ioos:station:wmo:42051:1,2014-12-03T17:30:00Z,29.6350,-93.6417,2.0,268.343706,16.95708112,-99999.0,'11111222,11111222,99999999' 
TABS,ioos:station:wmo:42051:1,2014-12-03T18:00:00Z,29.6350,-93.6417,2.0,243.5190968,15.16055738,-99999.0,'11111222,11111222,99999999' 
TABS,ioos:station:wmo:42051:1,2014-12-03T18:30:00Z,29.6350,-93.6417,2.0,236.7363657,19.36234748,-99999.0,'11111222,11111222,99999999' 
TABS,ioos:station:wmo:42051:1,2014-12-03T19:00:00Z,29.6350,-93.6417,2.0,240.276809,22.56936198,-99999.0,'11111222,11111222,99999999' 
TABS,ioos:station:wmo:42051:1,2014-12-03T19:30:00Z,29.6350,-93.6417,2.0,243.4593987,20.65679791,-99999.0,'11111222,11111222,99999999' 
TABS,ioos:station:wmo:42051:1,2014-12-03T20:00:00Z,29.6350,-93.6417,2.0,250.200749,22.58506143,-99999.0,'11111222,11111222,99999999' 
TABS,ioos:station:wmo:42051:1,2014-12-03T20:30:00Z,29.6350,-93.6417,2.0,249.9262832,22.78403827,-99999.0,'11111222,11111222,99999999' 
TABS,ioos:station:wmo:42051:1,2014-12-03T21:00:00Z,29.6350,-93.6417,2.0,240.9693723,20.58640571,-99999.0,'11111222,11111222,99999999' 
TABS,ioos:station:wmo:42051:1,2014-12-03T21:30:00Z,29.6350,-93.6417,2.0,247.8360723,21.15297851,-99999.0,'11111222,11111222,99999999' 
TABS,ioos:station:wmo:42051:1,2014-12-03T22:00:00Z,29.6350,-93.6417,2.0,250.9266636,21.29926055,-99999.0,'11111222,11111222,99999999' 
TABS,ioos:station:wmo:42051:1,2014-12-03T22:30:00Z,29.6350,-93.6417,2.0,250.9875853,17.89623703,-99999.0,'11111222,11111222,99999999' 
TABS,ioos:station:wmo:42051:1,2014-12-03T23:00:00Z,29.6350,-93.6417,2.0,253.5068087,14.08971611,-99999.0,'11111222,11111222,99999999' 
TABS,ioos:station:wmo:42051:1,2014-12-03T23:30:00Z,29.6350,-93.6417,2.0,261.0553947,17.81664671,-99999.0,'11111222,11111222,99999999' 
TABS,ioos:station:wmo:42051:1,2014-12-04T00:00:00Z,29.6350,-93.6417,2.0,272.7762179,19.82325907,-99999.0,'11111222,11111222,99999999' 
TABS,ioos:station:wmo:42051:1,2014-12-04T00:30:00Z,29.6350,-93.6417,2.0,270.9747427,14.7021257,-99999.0,'11111222,11111222,99999999' 
TABS,ioos:station:wmo:42051:1,2014-12-04T01:00:00Z,29.6350,-93.6417,2.0,266.7988799,12.17899832,-99999.0,'11111222,11111222,99999999' 
TABS,ioos:station:wmo:42051:1,2014-12-04T01:30:00Z,29.6350,-93.6417,2.0,250.6630004,10.44945932,-99999.0,'11111222,11111222,99999999' 
TABS,ioos:station:wmo:42051:1,2014-12-04T02:00:00Z,29.6350,-93.6417,2.0,277.5487797,13.09346402,-99999.0,'11111222,11111222,99999999' 
TABS,ioos:station:wmo:42051:1,2014-12-04T02:30:00Z,29.6350,-93.6417,2.0,246.6133043,12.82345507,-99999.0,'11111222,11111222,99999999' 
TABS,ioos:station:wmo:42051:1,2014-12-04T03:00:00Z,29.6350,-93.6417,2.0,260.282365,14.04145648,-99999.0,'11111222,11111222,99999999' 
TABS,ioos:station:wmo:42051:1,2014-12-04T03:30:00Z,29.6350,-93.6417,2.0,274.0757889,11.96024247,-99999.0,'11111222,11111222,99999999' 
TABS,ioos:station:wmo:42051:1,2014-12-04T04:00:00Z,29.6350,-93.6417,2.0,271.6459445,14.62603159,-99999.0,'11111222,11111222,99999999' 
TABS,ioos:station:wmo:42051:1,2014-12-04T04:30:00Z,29.6350,-93.6417,2.0,255.4039677,12.42084136,-99999.0,'11111222,11111222,99999999' 
TABS,ioos:station:wmo:42051:1,2014-12-04T05:00:00Z,29.6350,-93.6417,2.0,244.5433996,13.86621794,-99999.0,'11111222,11111222,99999999' 
TABS,ioos:station:wmo:42051:1,2014-12-04T05:30:00Z,29.6350,-93.6417,2.0,237.5513535,13.43799464,-99999.0,'11111222,11111222,99999999' 
TABS,ioos:station:wmo:42051:1,2014-12-04T06:00:00Z,29.6350,-93.6417,2.0,254.9829848,15.59247254,-99999.0,'11111222,11111222,99999999' 
TABS,ioos:station:wmo:42051:1,2014-12-04T06:30:00Z,29.6350,-93.6417,2.0,237.6254917,16.30416511,-99999.0,'11111222,11111222,99999999' 
TABS,ioos:station:wmo:42051:1,2014-12-04T07:00:00Z,29.6350,-93.6417,2.0,237.6383244,24.39950204,-99999.0,'11111222,11111222,99999999' 
TABS,ioos:station:wmo:42051:1,2014-12-04T07:30:00Z,29.6350,-93.6417,2.0,249.1472953,23.99141513,-99999.0,'11111222,11111222,99999999' 
TABS,ioos:station:wmo:42051:1,2014-12-04T08:00:00Z,29.6350,-93.6417,2.0,237.4901647,24.09574444,-99999.0,'11111222,11111222,99999999' 
TABS,ioos:station:wmo:42051:1,2014-12-04T08:30:00Z,29.6350,-93.6417,2.0,240.936667,26.57632405,-99999.0,'11111222,11111222,99999999' 
TABS,ioos:station:wmo:42051:1,2014-12-04T09:00:00Z,29.6350,-93.6417,2.0,240.4330727,27.50111452,-99999.0,'11111222,11111222,99999999' 
TABS,ioos:station:wmo:42051:1,2014-12-04T09:30:00Z,29.6350,-93.6417,2.0,239.8277775,20.97113492,-99999.0,'11111222,11111222,99999999' 
TABS,ioos:station:wmo:42051:1,2014-12-04T10:00:00Z,29.6350,-93.6417,2.0,240.6448224,21.31710346,-99999.0,'11111222,11111222,99999999' 
TABS,ioos:station:wmo:42051:1,2014-12-04T10:30:00Z,29.6350,-93.6417,2.0,239.4931419,21.27507697,-99999.0,'11111222,11111222,99999999' 
TABS,ioos:station:wmo:42051:1,2014-12-04T11:00:00Z,29.6350,-93.6417,2.0,242.0470775,19.39239542,-99999.0,'11111222,11111222,99999999' 
TABS,ioos:station:wmo:42051:1,2014-12-04T11:30:00Z,29.6350,-93.6417,2.0,245.3590752,21.70657504,-99999.0,'11111222,11111222,99999999' 
TABS,ioos:station:wmo:42051:1,2014-12-04T12:00:00Z,29.6350,-93.6417,2.0,249.3773612,18.22800044,-99999.0,'11111222,11111222,99999999' 
TABS,ioos:station:wmo:42051:1,2014-12-04T12:30:00Z,29.6350,-93.6417,2.0,260.733447,19.68689412,-99999.0,'11111222,11111222,99999999' 
TABS,ioos:station:wmo:42051:1,2014-12-04T13:00:00Z,29.6350,-93.6417,2.0,264.6132297,14.59444415,-99999.0,'11111222,11111222,99999999' 
TABS,ioos:station:wmo:42051:1,2014-12-04T13:30:00Z,29.6350,-93.6417,2.0,261.9658718,16.81502304,-99999.0,'11111222,11111222,99999999' 
TABS,ioos:station:wmo:42051:1,2014-12-04T14:00:00Z,29.6350,-93.6417,2.0,259.7371323,13.30281925,-99999.0,'11111222,11111222,99999999' 
TABS,ioos:station:wmo:42051:1,2014-12-04T14:30:00Z,29.6350,-93.6417,2.0,263.9648972,12.84116038,-99999.0,'11111222,11111222,99999999' 
TABS,ioos:station:wmo:42051:1,2014-12-04T15:00:00Z,29.6350,-93.6417,2.0,291.7684825,12.78141229,-99999.0,'11111222,11111222,99999999' 
TABS,ioos:station:wmo:42051:1,2014-12-04T15:30:00Z,29.6350,-93.6417,2.0,281.4175217,16.77188123,-99999.0,'11111222,11111222,99999999' 
TABS,ioos:station:wmo:42051:1,2014-12-04T16:00:00Z,29.6350,-93.6417,2.0,291.3897112,12.39362739,-99999.0,'11111222,11111222,99999999' 